Cleveland, Oklahoma, United States (74020)
Lat: 36.31N, Lon: 96.46W
Wx Zone: OKZ059
Local Info
Past Weather Observations for Today

NOTE: This archive is for the closest National Weather Service station to Cleveland. Information may differ from the station used for current weather conditions.

Click here for Long-term Archive

Time Weather Temperature Dewpoint Humidity Pressure Winds Precip Visibility
10:15
Overcast
46°F / 8°C 46°F / 8°C 100% 29.92 in
(1013 mb)
SW 12.7 mph
(SW 20 kph)
- 10SM
09:55
Overcast
45°F / 7°C 45°F / 7°C 100% 29.89 in
(1012 mb)
S 13.8 mph
(S 22 kph)
- 7SM
09:35
Overcast
43°F / 6°C 43°F / 6°C 100% 29.92 in
(1013 mb)
SW 11.5 mph
(SW 19 kph)
- 7SM
09:15
Overcast
41°F / 5°C 41°F / 5°C 100% 29.92 in
(1013 mb)
SSE 13.8 mph
(SSE 22 kph)
- 7SM
08:55
Overcast
41°F / 5°C 41°F / 5°C 100% 29.92 in
(1013 mb)
S 11.5 mph
(S 19 kph)
- 7SM
08:35
Overcast
39°F / 4°C 39°F / 4°C 100% 29.92 in
(1013 mb)
S 9.2 mph
(S 15 kph)
- 7SM
08:15
Overcast
39°F / 4°C 39°F / 4°C 100% 29.92 in
(1013 mb)
SSE 11.5 mph
(SSE 19 kph)
- 7SM
07:55
Overcast
39°F / 4°C 39°F / 4°C 100% 29.92 in
(1013 mb)
SW 6.9 mph
(SW 11 kph)
- 7SM
07:35
Overcast
39°F / 4°C 39°F / 4°C 100% 29.92 in
(1013 mb)
SW 8.1 mph
(SW 13 kph)
- 7SM
07:15
Overcast
37°F / 3°C 37°F / 3°C 100% 29.92 in
(1013 mb)
SW 10.4 mph
(SW 17 kph)
- 7SM
06:55
Overcast
37°F / 3°C 37°F / 3°C 100% 29.92 in
(1013 mb)
SSE 12.7 mph
(SSE 20 kph)
- 7SM
06:35
Overcast
37°F / 3°C 37°F / 3°C 100% 29.92 in
(1013 mb)
SSE 11.5 mph
(SSE 19 kph)
- 10SM
06:15
Overcast
37°F / 3°C 37°F / 3°C 100% 29.92 in
(1013 mb)
SSE 13.8 mph
(SSE 22 kph)
- 7SM
05:55
Overcast
37°F / 3°C 37°F / 3°C 100% 29.92 in
(1013 mb)
SSE 12.7 mph
(SSE 20 kph)
- 7SM
05:35
Overcast
37°F / 3°C 37°F / 3°C 100% 29.92 in
(1013 mb)
SW 12.7 mph
(SW 20 kph)
- 7SM
05:10
Overcast
Fog And Mist
37°F / 3°C 37°F / 3°C 100% 29.92 in
(1013 mb)
S 10.4 mph
(S 17 kph)
- 5SM
04:55
Overcast
Fog And Mist
37°F / 3°C 37°F / 3°C 100% 29.92 in
(1013 mb)
S 12.7 mph
(S 20 kph)
- 4SM
04:35
Overcast
Fog And Mist
37°F / 3°C 37°F / 3°C 100% 29.92 in
(1013 mb)
S 12.7 mph
(S 20 kph)
- 3SM
04:15
Overcast
Fog And Mist
36°F / 2°C 36°F / 2°C 100% 29.92 in
(1013 mb)
S 15 mph
(S 24 kph)
- 2 1/2SM
03:55
Overcast
Fog And Mist
36°F / 2°C 36°F / 2°C 100% 29.92 in
(1013 mb)
S 15 mph
(S 24 kph)
- 2 1/2SM
03:35
Overcast
Fog And Mist
36°F / 2°C 36°F / 2°C 100% 29.95 in
(1014 mb)
S 13.8 mph
(S 22 kph)
- 2 1/2SM
03:15
Overcast
Fog And Mist
36°F / 2°C 36°F / 2°C 100% 29.95 in
(1014 mb)
SSE 10.4 mph
(SSE 17 kph)
- 3SM
02:55
Overcast
Fog And Mist
36°F / 2°C 36°F / 2°C 100% 29.95 in
(1014 mb)
S 12.7 mph
(S 20 kph)
- 2 1/2SM
02:35
Overcast
Fog And Mist
36°F / 2°C 36°F / 2°C 100% 29.98 in
(1015 mb)
SSE 12.7 mph
(SSE 20 kph)
- 3SM
02:15
Overcast
Fog And Mist
36°F / 2°C 36°F / 2°C 100% 29.98 in
(1015 mb)
S 12.7 mph
(S 20 kph)
- 4SM
01:55
Overcast
Fog And Mist
36°F / 2°C 36°F / 2°C 100% 29.98 in
(1015 mb)
S 11.5 mph
(S 19 kph)
- 3SM
01:35
Overcast
Fog And Mist
36°F / 2°C 36°F / 2°C 100% 29.98 in
(1015 mb)
S 13.8 mph
(S 22 kph)
- 2 1/2SM
01:15
Overcast
Fog And Mist
34°F / 1°C 34°F / 1°C 100% 30.01 in
(1016 mb)
SSE 12.7 mph
(SSE 20 kph)
- 2SM
00:55
Overcast
Fog And Mist
34°F / 1°C 34°F / 1°C 100% 30.01 in
(1016 mb)
S 12.7 mph
(S 20 kph)
- 1SM
00:35
Overcast
Light Snow
34°F / 1°C 34°F / 1°C 100% 30.01 in
(1016 mb)
S 9.2 mph
(S 15 kph)
- 1/2SM
00:15
Overcast
Light Snow
34°F / 1°C 34°F / 1°C 100% 30.01 in
(1016 mb)
S 9.2 mph
(S 15 kph)
- 1/2SM
Time Weather Temperature Dewpoint Humidity Pressure Winds Precip Visibility


Weather for websites

WeatherForYou.com, LLC is not responsible for any damages or problems caused by this service. Current weather conditions are obtained from the closest station including government and personal stations which may have varying degrees of accuracy. Weather forecasts are derived from the NOAA NDFD. Like all things, this site belongs to Jesus Christ... He just trusts me to maintain it. If you have any questions or comments email webmaster@weatherforyou.com

Copyright © 2015, WeatherForYou.com LLC. All rights reserved.